Tracking 25620 objects as of 18-May-2022
HD Live streaming from Space Station
objects crossing your sky now

NAVSTAR 78 (USA 293)

Track NAVSTAR 78 (USA 293) now!
NAVSTAR 78 (USA 293) is classified as:


NORAD ID: 44506
Int'l Code: 2019-056A
Perigee: 20,127.4 km
Apogee: 20,249.9 km
Inclination: 55.7 °
Period: 717.9 minutes
Semi major axis: 26559 km
RCS: Unknown
Launch date: August 22, 2019
Source: United States (US)
Launch site: AIR FORCE EASTERN TEST RANGE (AFETR)
PRN: 18
aabbcc
Your satellite tracking list
Your tracking list is empty




NASA's NSSDC Master Catalog

Two Line Element Set (TLE):
1 44506U 19056A   22138.14744868 -.00000080  00000-0  00000+0 0  9996
2 44506  55.6650  30.2534 0023064 179.2865   4.3303  2.00571854 20162
Source of the keplerian elements: AFSPC